SBI596Z UUDD-URMM

Flight info

Callsign SBI596Z
Flight time N/A
Altitude 37000
Route TOGMO4Q TOGMO M56 ABAGI DCT 530811N0430351E DCT NIMTA/K0861F360 DCT NATIT/K0857F350 DCT MOLED DCT LIDUS DCT OMIRA DCT AST DCT ZG DCT ITAKA/K0854F360 DCT 434533N0483400E DCT AMKOL DCT GOTIK DCT MEMZA A962 OKARU OKARU5A
Aircraft A320/M-SDE3FGHIRWY/LB1

Departure

Time N/A
Airport Domodedovo International Airport (UUDD)

Arrival

Time 2026-04-30 13:00
Airport Mineralnye Vody Airport (URMM)
Time Latitude Longitude Altitude Speed Heading
2026-04-30 12:21 43.56863 44.50354 38183 ft 380 kts 279°
2026-04-30 12:21 43.58127 44.43292 38150 ft 380 kts 279°
2026-04-30 12:22 43.58756 44.39771 37886 ft 379 kts 279°
2026-04-30 12:22 43.59387 44.36234 37304 ft 380 kts 279°
2026-04-30 12:22 43.60018 44.32686 36568 ft 382 kts 278°
2026-04-30 12:22 43.60647 44.29143 35886 ft 383 kts 278°
2026-04-30 12:23 43.61283 44.25555 35163 ft 385 kts 278°
2026-04-30 12:23 43.61919 44.21958 34411 ft 387 kts 278°
2026-04-30 12:23 43.62595 44.18355 33695 ft 391 kts 282°
2026-04-30 12:23 43.63576 44.14865 33017 ft 397 kts 289°
2026-04-30 12:24 43.64934 44.11530 32338 ft 405 kts 296°
2026-04-30 12:24 43.66681 44.08402 31635 ft 415 kts 303°
2026-04-30 12:24 43.68636 44.05457 30916 ft 418 kts 304°
2026-04-30 12:24 43.70587 44.02521 30192 ft 419 kts 304°
2026-04-30 12:25 43.72561 43.99542 29447 ft 422 kts 304°
2026-04-30 12:25 43.74551 43.96537 28682 ft 424 kts 304°
2026-04-30 12:25 43.76545 43.93521 27900 ft 427 kts 304°
2026-04-30 12:25 43.78540 43.90480 27105 ft 437 kts 304°
2026-04-30 12:26 43.80583 43.87318 26294 ft 448 kts 304°
2026-04-30 12:26 43.82675 43.84032 25477 ft 457 kts 304°
2026-04-30 12:26 43.84755 43.80690 24674 ft 461 kts 304°
2026-04-30 12:26 43.86785 43.77306 23907 ft 456 kts 303°
2026-04-30 12:27 43.87839 43.75545 23513 ft 452 kts 305°
2026-04-30 12:27 43.89728 43.72963 22891 ft 451 kts 315°
2026-04-30 12:27 43.92343 43.70613 22156 ft 452 kts 329°
2026-04-30 12:27 43.95320 43.69209 21412 ft 453 kts 346°
2026-04-30 12:28 43.98431 43.68961 20674 ft 452 kts
2026-04-30 12:28 44.01477 43.69836 19920 ft 449 kts 13°
2026-04-30 12:28 44.04555 43.70470 18858 ft 446 kts 358°
2026-04-30 12:28 44.07552 43.69899 17668 ft 443 kts 341°
2026-04-30 12:29 44.10334 43.68113 16443 ft 438 kts 323°
2026-04-30 12:29 44.12522 43.65330 15416 ft 427 kts 305°
2026-04-30 12:29 44.13919 43.61766 14938 ft 419 kts 287°
2026-04-30 12:29 44.14424 43.57806 14660 ft 414 kts 268°
2026-04-30 12:30 44.14158 43.53870 14180 ft 409 kts 259°
2026-04-30 12:30 44.13531 43.50083 13321 ft 403 kts 252°
2026-04-30 12:30 44.12640 43.46375 12419 ft 402 kts 250°
2026-04-30 12:30 44.11710 43.42734 11702 ft 400 kts 252°
2026-04-30 12:31 44.11250 43.38934 11000 ft 398 kts 270°
2026-04-30 12:31 44.11679 43.35163 10410 ft 393 kts 289°
2026-04-30 12:31 44.12941 43.31923 10159 ft 380 kts 308°
2026-04-30 12:31 44.14887 43.29500 9979 ft 367 kts 328°
2026-04-30 12:32 44.17194 43.28230 9695 ft 350 kts 349°
2026-04-30 12:32 44.19535 43.28216 9424 ft 334 kts 11°
2026-04-30 12:32 44.21653 43.29433 9178 ft 318 kts 35°
2026-04-30 12:32 44.23127 43.31580 8950 ft 302 kts 60°
2026-04-30 12:33 44.23813 43.34280 8565 ft 293 kts 85°
2026-04-30 12:33 44.23613 43.37062 8060 ft 289 kts 111°
2026-04-30 12:33 44.22591 43.39380 7536 ft 284 kts 137°
2026-04-30 12:33 44.20950 43.40813 7014 ft 280 kts 163°
2026-04-30 12:34 44.19050 43.41046 6502 ft 276 kts 191°
2026-04-30 12:34 44.17327 43.40034 6117 ft 268 kts 217°
2026-04-30 12:34 44.16097 43.38053 5337 ft 278 kts 241°
2026-04-30 12:34 44.15108 43.35772 4753 ft 277 kts 228°
2026-04-30 12:35 44.13766 43.33879 4507 ft 265 kts 234°
2026-04-30 12:35 44.13044 43.31632 4308 ft 253 kts 259°
2026-04-30 12:35 44.13109 43.29236 4133 ft 243 kts 285°
2026-04-30 12:35 44.13857 43.27206 3983 ft 234 kts 303°
2026-04-30 12:36 44.14767 43.25354 3886 ft 226 kts 302°
2026-04-30 12:36 44.15655 43.23607 3790 ft 220 kts 303°
2026-04-30 12:36 44.16537 43.21816 3325 ft 226 kts 301°
2026-04-30 12:36 44.17400 43.19954 2811 ft 231 kts 301°
2026-04-30 12:37 44.18259 43.18071 2394 ft 229 kts 301°
2026-04-30 12:37 44.19098 43.16220 2105 ft 220 kts 301°
2026-04-30 12:37 44.19895 43.14459 1844 ft 209 kts 301°
2026-04-30 12:37 44.20612 43.12831 1601 ft 193 kts 299°
2026-04-30 12:38 44.21318 43.11251 1233 ft 186 kts 300°
2026-04-30 12:38 44.21962 43.09826 1258 ft 165 kts 300°
2026-04-30 12:38 44.22590 43.08373 1675 ft 197 kts 299°
2026-04-30 12:38 44.23374 43.06632 2134 ft 220 kts 301°
2026-04-30 12:39 44.24194 43.04853 2022 ft 216 kts 301°
2026-04-30 12:39 44.24988 43.03119 2011 ft 209 kts 301°
2026-04-30 12:39 44.25779 43.01428 2012 ft 210 kts 308°
2026-04-30 12:39 44.26983 43.00265 2048 ft 214 kts 344°
2026-04-30 12:40 44.28458 43.00328 2388 ft 222 kts 20°
2026-04-30 12:40 44.29695 43.01636 3035 ft 228 kts 56°
2026-04-30 12:40 44.30224 43.03692 3651 ft 230 kts 88°
2026-04-30 12:40 44.29940 43.05859 3982 ft 228 kts 112°
2026-04-30 12:41 44.29361 43.07918 4031 ft 226 kts 112°
2026-04-30 12:41 44.28793 43.09937 3890 ft 224 kts 112°
2026-04-30 12:41 44.28218 43.11986 3629 ft 226 kts 112°
2026-04-30 12:41 44.27652 43.14009 3393 ft 226 kts 112°
2026-04-30 12:42 44.27084 43.16050 3171 ft 225 kts 112°
2026-04-30 12:42 44.26504 43.18076 2951 ft 224 kts 113°
2026-04-30 12:42 44.25918 43.20088 2733 ft 224 kts 113°
2026-04-30 12:42 44.25332 43.22112 2513 ft 223 kts 113°
2026-04-30 12:43 44.24754 43.24122 2294 ft 223 kts 113°
2026-04-30 12:43 44.24183 43.26117 2084 ft 222 kts 112°
2026-04-30 12:43 44.23610 43.28122 2003 ft 222 kts 112°
2026-04-30 12:43 44.23038 43.30125 2010 ft 228 kts 112°
2026-04-30 12:44 44.22442 43.32216 2012 ft 229 kts 112°
2026-04-30 12:44 44.21863 43.34244 2154 ft 226 kts 112°
2026-04-30 12:44 44.21252 43.36302 2606 ft 229 kts 120°
2026-04-30 12:44 44.20165 43.37867 2950 ft 227 kts 156°
2026-04-30 12:45 44.18660 43.38245 3025 ft 221 kts 191°
2026-04-30 12:45 44.17283 43.37440 3014 ft 217 kts 214°
2026-04-30 12:45 44.16008 43.36280 3011 ft 216 kts 213°
2026-04-30 12:45 44.14747 43.35164 3008 ft 216 kts 213°
2026-04-30 12:46 44.13819 43.34330 3013 ft 219 kts 217°
2026-04-30 12:46 44.12887 43.32681 3017 ft 220 kts 251°
2026-04-30 12:46 44.12804 43.30590 3015 ft 221 kts 285°
2026-04-30 12:46 44.13480 43.28657 3009 ft 221 kts 300°
2026-04-30 12:47 44.14270 43.26877 3013 ft 212 kts 301°
2026-04-30 12:47 44.15046 43.25180 3016 ft 200 kts 301°
2026-04-30 12:47 44.15743 43.23666 3011 ft 174 kts 301°
2026-04-30 12:47 44.16349 43.22333 2988 ft 153 kts 300°
2026-04-30 12:48 44.16900 43.21109 2897 ft 144 kts 300°
2026-04-30 12:48 44.17417 43.19947 2727 ft 140 kts 300°
2026-04-30 12:48 44.17932 43.18800 2528 ft 140 kts 300°
2026-04-30 12:48 44.18447 43.17660 2327 ft 139 kts 300°
2026-04-30 12:49 44.18963 43.16518 2143 ft 139 kts 300°
2026-04-30 12:49 44.19476 43.15384 1969 ft 138 kts 300°
2026-04-30 12:49 44.19992 43.14243 1780 ft 138 kts 300°
2026-04-30 12:49 44.20501 43.13110 1561 ft 138 kts 300°
2026-04-30 12:50 44.21006 43.11972 1349 ft 136 kts 300°
2026-04-30 12:50 44.21510 43.10839 1164 ft 137 kts 300°
2026-04-30 12:50 44.22006 43.09747 1065 ft 124 kts 301°
2026-04-30 12:50 44.22466 43.08693 1249 ft 142 kts 298°
2026-04-30 12:51 44.22964 43.07378 1716 ft 170 kts 295°
2026-04-30 12:51 44.23485 43.05786 2361 ft 191 kts 291°
2026-04-30 12:51 44.24031 43.04022 2956 ft 214 kts 299°
2026-04-30 12:51 44.24903 43.02255 3035 ft 222 kts 305°
2026-04-30 12:52 44.25796 43.00544 3012 ft 216 kts 307°
2026-04-30 12:52 44.26992 42.99268 3018 ft 220 kts 340°
2026-04-30 12:52 44.28491 42.99144 3011 ft 223 kts 14°
2026-04-30 12:52 44.29835 43.00250 3014 ft 226 kts 49°
2026-04-30 12:53 44.30508 43.02176 3015 ft 226 kts 83°
2026-04-30 12:53 44.30323 43.04345 3018 ft 225 kts 111°
2026-04-30 12:53 44.29760 43.06345 3010 ft 223 kts 112°
2026-04-30 12:53 44.29187 43.08389 3013 ft 223 kts 112°
2026-04-30 12:54 44.28819 43.09701 3013 ft 223 kts 112°
2026-04-30 12:54 44.28252 43.11722 3013 ft 223 kts 112°
2026-04-30 12:54 44.27681 43.13752 3013 ft 221 kts 112°
2026-04-30 12:54 44.27137 43.15688 3014 ft 210 kts 112°
2026-04-30 12:55 44.26609 43.17561 3014 ft 203 kts 112°
2026-04-30 12:55 44.25925 43.19122 3025 ft 178 kts 143°
2026-04-30 12:55 44.24883 43.19729 3012 ft 152 kts 170°
2026-04-30 12:55 44.23892 43.20011 3000 ft 143 kts 171°
2026-04-30 12:56 44.22910 43.20283 3003 ft 143 kts 171°
2026-04-30 12:56 44.21936 43.20554 3004 ft 143 kts 171°
2026-04-30 12:56 44.21020 43.20810 3005 ft 143 kts 171°
2026-04-30 12:56 44.20041 43.21085 3003 ft 143 kts 171°
2026-04-30 12:57 44.19053 43.21206 2999 ft 141 kts 195°
2026-04-30 12:57 44.18285 43.20432 3003 ft 140 kts 244°
2026-04-30 12:57 44.18190 43.19099 2878 ft 142 kts 279°
2026-04-30 12:57 44.18511 43.17778 2400 ft 148 kts 293°
2026-04-30 12:58 44.18970 43.16545 2114 ft 139 kts 296°
2026-04-30 12:58 44.19451 43.15400 1882 ft 136 kts 299°
2026-04-30 12:58 44.19948 43.14272 1647 ft 135 kts 300°
2026-04-30 12:58 44.20469 43.13179 1627 ft 137 kts 302°
2026-04-30 12:59 44.20970 43.12038 1362 ft 137 kts 298°
2026-04-30 12:59 44.21471 43.10920 1149 ft 135 kts 300°
2026-04-30 12:59 44.21955 43.09860 1065 ft 120 kts 300°
2026-04-30 12:59 44.22322 43.09041 1063 ft 74 kts 302°
2026-04-30 13:00 44.22520 43.08598 1063 ft 47 kts 302°
2026-04-30 13:00 44.22689 43.08221 1063 ft 40 kts 302°
2026-04-30 13:00 44.22770 43.08042 1063 ft 7 kts 293°
2026-04-30 13:00 44.22774 43.08015 1063 ft 0 kts 310°
2026-04-30 13:01 44.22778 43.08016 1063 ft 0 kts 17°
2026-04-30 13:01 44.22784 43.08036 1063 ft 4 kts 84°
2026-04-30 13:01 44.22776 43.08104 1063 ft 8 kts 117°
2026-04-30 13:01 44.22698 43.08228 1063 ft 25 kts 129°
2026-04-30 13:02 44.22592 43.08438 1063 ft 28 kts 121°
2026-04-30 13:02 44.22482 43.08678 1063 ft 29 kts 122°
2026-04-30 13:02 44.22385 43.08903 1063 ft 19 kts 122°
2026-04-30 13:02 44.22276 43.08990 1063 ft 19 kts 173°
2026-04-30 13:03 44.22158 43.09006 1063 ft 13 kts 189°
2026-04-30 13:03 44.22072 43.08946 1063 ft 14 kts 211°
2026-04-30 13:03 44.21995 43.08878 1063 ft 12 kts 213°
2026-04-30 13:03 44.21935 43.08824 1063 ft 5 kts 211°
2026-04-30 13:04 44.21925 43.08820 1063 ft 1 kts 187°
2026-04-30 13:04 44.21885 43.08806 1063 ft 6 kts 206°
2026-04-30 13:04 44.21859 43.08782 1063 ft 1 kts 214°
2026-04-30 13:04 44.21858 43.08781 1063 ft 0 kts 214°
2026-04-30 13:05 44.21854 43.08778 1063 ft 0 kts 213°